Regional Weather Roundup
Issued by NWS Lake Charles, LA

Home | Current Version | Previous Version | Text Only | Print | Product List | Glossary On
Versions: 1 2 3 4 5 6 7 8 9 10 11 12 13 14 15 16 17 18 19 20 21 22 23 24 25 26 27
000
ASUS44 KLCH 301310
RWRLCH
REGIONAL WEATHER ROUNDUP
NATIONAL WEATHER SERVICE LAKE CHARLES LA
800 AM CDT MON MAY 30 2016

Note: "fair" indicates few or no clouds below 12,000 feet with no
significant weather and/or obstructions to visibility.


ACROSS SOUTHEAST TEXAS

CITY           SKY/WX    TMP DP  RH WIND       PRES   REMARKS
BEAUMONT       CLOUDY    76  74  93 CALM      30.02S
BEAUMONT CITY  FAIR      74  72  93 NW3       30.04R
ORANGE         CLOUDY    73  71  93 CALM      30.04S
JASPER         MOSUNNY   70  69  97 CALM      30.07R
$$

ACROSS CENTRAL LOUISIANA

CITY           SKY/WX    TMP DP  RH WIND       PRES   REMARKS
LEESVILLE      MOSUNNY   76  73  88 N3        30.04S
FULLERTON      FAIR      76  71  85 VRB3      30.02S
ALEXANDRIA INT SUNNY     74  72  93 CALM      30.03R
ESLER FIELD    SUNNY     74  71  91 CALM      30.04R
DERIDDER       FAIR      73  72  95 CALM      30.06S FOG
OAKDALE        SUNNY     74  73  96 CALM      30.04S FOG
OPELOUSAS      CLOUDY    73  73  99 CALM      30.04S
$$

ACROSS SOUTHWEST AND SOUTH CENTRAL LOUISIANA

CITY           SKY/WX    TMP DP  RH WIND       PRES   REMARKS
SULPHUR        MOSUNNY   76  76  99 CALM      30.04R
LAKE CHARLES   CLOUDY    77  74  90 NE3       30.03R
CHENNAULT INT  SUNNY    N/A N/A N/A CALM        N/A
CAMERON PHI    SUNNY     79  72  78 CALM      30.05S
DEQUINCY       FAIR      71  71 100 CALM      30.04S
JENNINGS       CLOUDY    75  75 100 N5        30.04R FOG
LAFAYETTE      MOSUNNY   77  74  90 NW6       30.04R
NEW IBERIA     MOSUNNY   76  74  93 NW3       30.04R FOG
ABBEVILLE      FOG       74  74 100 CALM      30.05R VSB 1/4
PATTERSON      NOT AVBL
SALT POINT       N/A     77  74  90 N5        30.03R
$$

SELECTED SITES ACROSS THE REGION

CITY           SKY/WX    TMP DP  RH WIND       PRES   REMARKS
HOUSTON BUSH   CLOUDY    75  73  93 NW5       30.06R
HOUSTON HOBBY  CLOUDY    76  73  91 CALM      30.03R
GALVESTON      MOSUNNY   78  73  84 CALM      30.03R
COLLEGE STAT   CLOUDY    72  72 100 CALM      30.05F FOG
CONROE         PTSUNNY   70  70 100 CALM      30.06R FOG
HUNTSVILLE     CLOUDY    73  71  93 CALM      30.07R
LUFKIN         MOSUNNY   72  71  97 CALM      30.05R FOG
SHREVEPORT     CLOUDY    77  71  82 CALM      30.05R
MONROE         SUNNY     73  66  78 E5        30.07R
NATCHEZ MS     SUNNY     72  66  83 CALM      30.06R
BATON ROUGE    SUNNY     77  70  79 CALM      30.04R
N.O. INTL ARPT PTSUNNY   79  72  79 NW6       30.04R
SLIDELL        SUNNY     77  73  87 N5        30.03R
$$

MARINE REPORTS

STATION/POSITION TIME  SKY/WX   TEMP    WIND        PRES    VSBY
                                AIR SEA DIR/SP/G
                 (UTC)          (F)     (DEG/KT/KT) (MB)    (MI)
BUOY 30 S HIGH I 1250            79 80  160/  4/  4 1016.0R
WVE H/P(F/S)=  2/ 5

SEA RIM ST PARK  1300            79     160/  3/  3 1017.0S
PORT ARTHUR      1200               79   CALM  /  1 1016.7R
SABINE PASS N    1200            77 81   CALM  /  1 1018.0R
TEXAS POINT      NOT AVBL
CALCASIEU PASS   1200            79 82   CALM  /  2 1015.8R
LK CHARLES BEACH 1200            75 78              1017.2R
MARSH ISLAND     1200            79                   N/A
FRESH WATER LOCK 1200            75 84  320/  3/  4 1017.5R
AMERADA PASS     1200            76 76     CALM     1016.6R
$$




USA.gov is the U.S. government's official web portal to all federal, state and local government web resources and services.